Regional Weather Roundup
Issued by NWS Memphis, TN

Home | Current Version | Previous Version | Text Only | Print | Product List | Glossary On
Versions: 1 2 3 4 5 6 7 8 9 10 11 12 13 14 15 16 17 18 19 20 21 22 23 24 25 26 27 28 29 30 31 32 33 34 35 36 37 38 39 40 41 42 43 44 45 46 47 48 49 50
000
ASUS44 KMEG 301710
RWRMEG
MEMPHIS CWA HOURLY WEATHER ROUNDUP
NATIONAL WEATHER SERVICE MEMPHIS TN
1200 PM CDT SAT APR 30 2016

...WEST TENNESSEE...

CITY           SKY/WX    TMP DP  RH WIND       PRES   REMARKS
MEMPHIS INTL   LGT RAIN  70  58  65 S28G38    29.80R
NWS MEMPHIS      N/A     68 N/A N/A MISG        N/A
JACKSON        PTSUNNY   67  62  84 SE12G25   29.81F
LEXINGTON      PTSUNNY   66  64  94 S8        29.91F
DYERSBURG      CLOUDY    70  63  78 S6          N/A
UNION CITY     SUNNY     66  64  94 S9        29.82S


...EASTERN ARKANSAS...

CITY           SKY/WX    TMP DP  RH WIND       PRES   REMARKS
JONESBORO      CLOUDY    69  60  73 SW10      29.81R
WEST MEMPHIS   CLOUDY    71  58  63 W8G21     29.78S
BATESVILLE     PTSUNNY   68  63  83 S5        29.80S
NEWPORT        CLOUDY    70  63  78 SW9       29.82R
WALNUT RIDGE   CLOUDY    70  59  68 SW10      29.81R
BLYTHEVILLE    CLOUDY    69  62  78 S10       29.81F
SEARCY         CLOUDY    70  63  78 SW5       29.82R
STUTTGART      CLOUDY    72  61  68 S10       29.79F
PINE BLUFF     CLOUDY    71  61  70 S8        29.79F
MONTICELLO     CLOUDY    72  60  66 W5        29.81R


...NORTH MISSISSIPPI...

CITY           SKY/WX    TMP DP  RH WIND       PRES   REMARKS
TUPELO         CLOUDY    73  66  78 W3        29.92R
BATESVILLE     LGT RAIN  65  62  91 S5        29.92S
OLIVE BRANCH   LGT RAIN  64  64 100 S8        29.85F
TUNICA         CLOUDY    66  59  77 S29G44    29.77F
CORINTH        PTSUNNY   68  63  83 S6        29.92F
GREENWOOD      LGT RAIN  67  63  87 NE10      29.87F
COLUMBUS       CLOUDY    73  68  83 SW8       29.91S
STARKVILLE     PTSUNNY   72  68  88 CALM      29.90F
GOLDEN TRIANGL CLOUDY    73  68  83 SW7       29.91S


...SOUTHEAST MISSOURI...

CITY           SKY/WX    TMP DP  RH WIND       PRES   REMARKS
KENNETT        FAIR      72  63  73 SW14      29.80R HAZE
WEST PLAINS    CLOUDY    65  59  81 SW13      29.78R
POPLAR BLUFF   CLOUDY    69  61  75 SW13      29.80S
CAPE GIRARDEAU CLOUDY    69  63  81 S9        29.81F


...NORTHWEST ALABAMA...

CITY           SKY/WX    TMP DP  RH WIND       PRES   REMARKS


...MIDDLE TENNESSEE...

CITY           SKY/WX    TMP DP  RH WIND       PRES   REMARKS
NASHVILLE      CLOUDY    69  63  81 CALM      29.95R
CLARKSVILLE    LGT RAIN  65  63  93 SE9       29.91F
COLUMBIA         N/A     73  73 100 W12       29.92S


...WESTERN KENTUCKY...

CITY           SKY/WX    TMP DP  RH WIND       PRES   REMARKS
PADUCAH        CLOUDY    69  62  78 VRB3      29.82F
FORT CAMPBELL  CLOUDY    65  65 100 S6        29.90F


...CENTRAL ARKANSAS...

CITY           SKY/WX    TMP DP  RH WIND       PRES   REMARKS
LITTLE ROCK    CLOUDY    70  62  76 CALM      29.79F


SKY/WX REPORTED AS FAIR MEANS FEW OR NO CLOUDS BELOW
12 THOUSAND FEET.




USA.gov is the U.S. government's official web portal to all federal, state and local government web resources and services.